DW8248 Weather Reports


time (UTC)temp
F
wind
direction
speed
knots
gust
knots
rain 1hr
in
rain 24hr
in
rain mn
in
humidity
%
barometer
mb
20260901054958 83 136 0.0 0.9 0.00 0.31 0.00 84 1015.7
20260901053939 83 116 0.0 2.6 0.00 0.36 0.00 84 1015.8
20260901052912 83 117 0.9 5.2 0.00 0.36 0.00 84 1015.9
20260901051913 83 112 1.7 5.2 0.00 0.36 0.00 85 1015.9
20260901050848 83 99 0.9 4.3 0.00 0.36 0.00 85 1016.1
20260901045903 83 107 0.0 0.9 0.00 0.36 0.00 86 1016.3
20260901043719 83 5 0.0 0.0 0.00 0.36 0.00 85 1016.2
20260901042709 83 5 0.0 0.0 0.00 0.36 0.00 86 1016.2
20260901041707 83 5 0.0 0.0 0.00 0.36 0.00 85 1016.3
20260901040646 83 5 0.0 0.0 0.00 0.36 0.00 85 1016.3
20260901035626 83 32 0.0 0.0 0.00 0.36 0.36 85 1016.3
20260901033420 83 50 0.0 1.7 0.00 0.36 0.36 85 1016.1
20260901032345 83 15 0.0 0.0 0.00 0.36 0.36 85 1016.2
20260901031358 83 30 0.0 0.0 0.00 0.36 0.36 85 1016.4
20260901030413 84 30 0.0 1.7 0.00 0.36 0.36 84 1016.5
20260901025338 84 24 0.9 3.5 0.00 0.36 0.36 84 1016.5
20260901023303 84 41 0.9 2.6 0.00 0.36 0.36 84 1016.6
20260901021227 84 40 0.9 2.6 0.00 0.36 0.36 84 1016.6
20260901015107 84 42 0.9 2.6 0.00 0.36 0.36 83 1016.2
20260901014035 84 38 0.9 2.6 0.00 0.36 0.36 83 1016.1
20260901013014 84 62 0.0 2.6 0.00 0.36 0.36 83 1016.0
20260901010806 84 82 0.9 2.6 0.00 0.36 0.36 83 1015.8
20260901005811 84 65 0.9 4.3 0.00 0.36 0.36 82 1015.7
20260901004834 84 76 1.7 5.2 0.00 0.36 0.36 82 1015.6
20260901003852 84 20 2.6 7.0 0.00 0.36 0.36 81 1015.6
20260901002903 84 58 2.6 7.0 0.00 0.36 0.36 81 1015.5
20260901001850 84 44 2.6 6.1 0.00 0.36 0.36 80 1015.6
20260901000906 84 22 2.6 6.1 0.00 0.36 0.36 79 1015.7
20260831234809 83 30 1.7 7.8 0.00 0.36 0.36 79 1015.6
20260831233822 83 9 2.6 7.8 0.00 0.36 0.36 79 1015.5
20260831231653 84 13 3.5 7.0 0.00 0.36 0.36 80 1015.3
20260831230639 84 44 2.6 7.8 0.00 0.36 0.36 80 1015.4
20260831225636 83 11 4.3 7.8 0.00 0.36 0.36 80 1015.4
20260831224619 83 5 3.5 9.6 0.00 0.36 0.36 80 1015.4
20260831223620 84 33 5.2 9.6 0.00 0.36 0.36 79 1015.4
20260831221457 84 43 2.6 7.0 0.00 0.36 0.36 79 1015.6
20260831220507 84 53 2.6 7.0 0.00 0.36 0.36 81 1015.6
20260831215450 84 33 3.5 6.1 0.00 0.36 0.36 83 1015.7
20260831214443 84 345 2.6 7.0 0.00 0.36 0.36 83 1015.8
20260831213416 84 5 2.6 7.0 0.00 0.36 0.36 83 1015.7
20260831212426 84 347 3.5 6.1 0.00 0.36 0.36 81 1015.6
20260831211359 84 9 1.7 5.2 0.00 0.36 0.36 80 1015.6
20260831210415 84 30 1.7 5.2 0.00 0.36 0.36 78 1015.8
20260831205349 84 342 1.7 3.5 0.00 0.36 0.36 77 1015.9
20260831203218 83 37 2.6 7.8 0.00 0.36 0.36 77 1015.9
20260831202153 84 19 3.5 7.8 0.00 0.36 0.36 78 1016.1
20260831200020 84 56 2.6 7.0 0.00 0.36 0.36 79 1016.1
20260831194952 85 48 4.3 9.6 0.00 0.36 0.36 81 1016.2
20260831194013 85 350 5.2 9.6 0.00 0.36 0.36 81 1016.2
20260831193007 86 26 3.5 7.8 0.00 0.36 0.36 82 1016.1
20260831191946 86 36 4.3 8.7 0.00 0.36 0.36 81 1016.2
20260831190912 86 5 4.3 9.6 0.00 0.36 0.36 81 1016.3
20260831185852 86 15 5.2 9.6 0.00 0.36 0.36 82 1016.4
20260831184839 86 28 5.2 9.6 0.00 0.36 0.36 82 1016.2
20260831183849 86 5 6.1 10.4 0.00 0.36 0.36 81 1016.3
20260831182905 86 38 5.2 10.4 0.00 0.36 0.36 79 1016.4
20260831181912 87 46 4.3 10.4 0.00 0.37 0.36 79 1016.2
20260831180859 87 0 5.2 9.6 0.00 0.37 0.36 80 1016.3
20260831174757 87 36 4.3 10.4 0.00 0.40 0.36 80 1016.5
20260831173728 86 5 5.2 9.6 0.00 0.43 0.36 80 1016.7
20260831172732 86 58 6.1 9.6 0.00 0.45 0.36 81 1016.6
20260831171716 86 23 5.2 10.4 0.00 0.46 0.36 81 1016.7
20260831170733 86 24 6.1 10.4 0.00 0.48 0.36 81 1016.8
20260831165713 86 53 4.3 8.7 0.00 0.48 0.36 82 1016.8
20260831164711 86 34 5.2 9.6 0.00 0.49 0.36 82 1016.7
20260831162444 86 37 4.3 8.7 0.00 0.50 0.36 82 1017.1
20260831161437 86 11 5.2 7.8 0.00 0.50 0.36 81 1017.4
20260831160444 86 29 4.3 7.8 0.00 0.50 0.36 80 1017.4
20260831155438 86 56 4.3 7.0 0.00 0.50 0.36 79 1017.6
20260831154407 86 5 3.5 7.0 0.00 0.50 0.36 80 1017.4
20260831153424 86 38 3.5 7.8 0.00 0.50 0.36 81 1017.5
20260831152422 86 47 3.5 7.8 0.00 0.50 0.36 80 1017.5
20260831151349 85 44 3.5 7.0 0.00 0.50 0.36 80 1017.5
20260831150355 85 33 3.5 7.0 0.00 0.50 0.36 81 1017.3
20260831145330 85 16 2.6 7.0 0.00 0.50 0.36 81 1017.1
20260831144257 85 26 3.5 7.0 0.00 0.50 0.36 81 1017.3
20260831143244 85 15 4.3 7.0 0.00 0.50 0.36 81 1017.3
20260831142237 85 5 3.5 7.0 0.00 0.50 0.36 81 1017.3
20260831141245 85 15 4.3 6.1 0.00 0.50 0.36 81 1017.2
20260831140236 85 57 2.6 5.2 0.00 0.50 0.36 81 1017.1
20260831135206 85 321 1.7 7.0 0.00 0.50 0.36 82 1017.1
20260831134221 84 349 3.5 7.0 0.00 0.50 0.36 83 1017.0
20260831133146 84 5 3.5 6.1 0.00 0.50 0.36 82 1016.9
20260831132205 84 355 2.6 6.1 0.00 0.50 0.36 84 1016.8
20260831131144 83 15 1.7 5.2 0.00 0.50 0.36 85 1016.6
20260831130158 83 355 2.6 5.2 0.00 0.50 0.36 85 1016.6
20260831125145 83 355 2.6 5.2 0.00 0.50 0.36 85 1016.5
20260831124143 83 13 0.9 3.5 0.00 0.50 0.36 86 1016.3
20260831123143 82 0 1.7 3.5 0.00 0.50 0.36 87 1016.5
20260831122107 81 342 1.7 2.6 0.00 0.50 0.36 87 1016.5
20260831121029 81 355 0.9 2.6 0.00 0.49 0.35 87 1016.4
20260831115959 81 9 0.9 2.6 0.00 0.49 0.35 87 1016.2
20260831113847 80 9 0.9 1.7 0.00 0.49 0.35 87 1016.1
20260831112841 80 21 0.9 2.6 0.00 0.49 0.35 87 1016.0
20260831111816 80 13 0.9 2.6 0.00 0.49 0.35 87 1015.8
20260831110834 80 16 0.9 1.7 0.00 0.49 0.35 86 1015.6
20260831105816 80 16 0.9 1.7 0.00 0.49 0.35 86 1015.5
20260831103714 80 0 0.0 1.7 0.00 0.49 0.35 85 1015.3
20260831102706 81 329 0.9 1.7 0.00 0.49 0.35 85 1015.2
20260831101713 80 5 0.0 0.9 0.00 0.49 0.35 84 1015.2
20260831100702 80 128 0.0 0.0 0.00 0.49 0.35 83 1015.3
20260831095638 80 128 0.0 2.6 0.00 0.49 0.35 83 1015.1
20260831094658 80 143 0.9 2.6 0.00 0.49 0.35 83 1015.0
20260831093632 80 131 0.0 2.6 0.00 0.49 0.35 84 1015.0
20260831092603 80 147 0.9 2.6 0.00 0.49 0.35 84 1015.0
20260831090447 80 113 0.9 3.5 0.00 0.49 0.35 86 1015.1
20260831085422 80 124 0.9 1.7 0.00 0.49 0.35 86 1015.1
20260831084359 80 109 0.9 1.7 0.00 0.49 0.35 86 1015.1
20260831083334 80 121 0.0 1.7 0.00 0.49 0.35 86 1015.2
20260831082331 79 68 0.0 0.0 0.00 0.49 0.35 86 1015.2
20260831080203 78 68 0.0 0.9 0.00 0.49 0.35 86 1015.3
20260831075202 78 68 0.0 0.9 0.00 0.49 0.35 86 1015.2
20260831074210 78 68 0.0 0.9 0.00 0.49 0.35 86 1015.1
20260831073137 78 68 0.0 0.0 0.00 0.49 0.35 86 1015.2
20260831072155 78 63 0.9 2.6 0.00 0.49 0.35 86 1015.4
20260831071121 78 36 1.7 7.0 0.04 0.49 0.35 86 1015.4
20260831064951 79 69 0.9 7.0 0.31 0.45 0.31 87 1015.9
20260831063933 79 121 3.5 12.2 0.11 0.41 0.26 86 1015.9
20260831062918 81 119 6.1 12.2 0.11 0.36 0.23 86 1015.9
20260831061844 81 140 7.0 11.3 0.00 0.19 0.05 83 1016.1
20260831060816 81 119 2.6 5.2 0.00 0.19 0.05 84 1016.0